GW5385 Weather Reports


time (UTC)temp
C
wind
direction
speed
KPH
gust
KPH
rain 1hr
cm
rain 24hr
cm
rain mn
cm
humidity
%
barometer
mb
20260504044544 12 35 32.2 48.3 0.00 0.00 0.00 40 1012.5
20260504043040 13 30 29.0 38.6 0.00 0.00 0.00 39 1011.9
20260504041539 13 14 19.3 27.4 0.00 0.00 0.00 39 1011.5
20260504040038 13 27 17.7 24.1 0.00 0.00 0.00 38 1011.2
20260504034540 13 20 17.7 24.1 0.00 0.00 0.00 38 1010.9
20260504033040 14 42 22.5 27.4 0.00 0.00 0.00 37 1010.6
20260504031556 15 25 20.9 29.0 0.00 0.00 0.00 37 1010.3
20260504030048 15 37 22.5 27.4 0.00 0.00 0.00 36 1009.9
20260504024548 16 37 19.3 29.0 0.00 0.00 0.00 35 1009.9
20260504023045 16 27 19.3 24.1 0.00 0.00 0.00 33 1009.7
20260504021514 17 39 14.5 19.3 0.00 0.00 0.00 29 1009.6
20260504020014 18 6 0.0 6.4 0.00 0.00 0.00 25 1009.6
20260504014515 19 353 9.7 19.3 0.00 0.00 0.00 23 1009.7
20260504013013 20 6 14.5 22.5 0.00 0.00 0.00 22 1009.7
20260504011509 21 353 12.9 22.5 0.00 0.00 0.00 21 1009.7
20260504010008 21 322 12.9 20.9 0.00 0.00 0.00 21 1009.8
20260504004538 22 344 12.9 30.6 0.00 0.00 0.00 22 1009.8
20260504003039 22 326 14.5 24.1 0.00 0.00 0.00 21 1009.9
20260504001535 22 344 9.7 22.5 0.00 0.00 0.00 21 1010.1
20260504000041 22 3 17.7 37.0 0.00 0.00 0.00 20 1010.1
20260503234530 22 340 16.1 25.7 0.00 0.00 0.00 21 1010.2
20260503233029 23 340 17.7 27.4 0.00 0.00 0.00 20 1010.3
20260503231526 22 335 14.5 33.8 0.00 0.00 0.00 20 1010.4
20260503230024 23 323 11.3 19.3 0.00 0.00 0.00 20 1010.5
20260503224526 23 331 8.0 20.9 0.00 0.00 0.00 21 1010.6
20260503223021 23 330 6.4 20.9 0.00 0.00 0.00 21 1010.6
20260503221518 23 304 11.3 22.5 0.00 0.00 0.00 21 1010.9
20260503220021 23 314 11.3 22.5 0.00 0.00 0.00 21 1011.1
20260503214523 23 303 11.3 22.5 0.00 0.00 0.00 21 1011.2
20260503213014 22 347 6.4 19.3 0.00 0.00 0.00 22 1011.3
20260503211511 22 302 6.4 20.9 0.00 0.00 0.00 21 1011.7
20260503210020 22 25 6.4 20.9 0.00 0.00 0.00 22 1011.9
20260503204509 22 294 8.0 20.9 0.00 0.00 0.00 23 1012.0
20260503203004 22 314 9.7 17.7 0.00 0.00 0.00 23 1012.0
20260503201501 22 44 11.3 24.1 0.00 0.00 0.00 22 1012.4
20260503200033 22 319 16.1 25.7 0.00 0.00 0.00 22 1012.7
20260503194527 21 256 4.8 17.7 0.00 0.00 0.00 22 1012.8
20260503193021 21 353 8.0 30.6 0.00 0.00 0.00 24 1013.1
20260503191520 21 340 11.3 27.4 0.00 0.00 0.00 23 1013.3
20260503190018 21 309 12.9 20.9 0.00 0.00 0.00 23 1013.4
20260503184524 20 330 6.4 17.7 0.00 0.00 0.00 24 1013.5
20260503183014 21 327 11.3 22.5 0.00 0.00 0.00 22 1013.6
20260503181511 20 290 8.0 16.1 0.00 0.00 0.00 24 1013.9
20260503180010 20 306 4.8 19.3 0.00 0.00 0.00 25 1014.1
20260503174507 20 343 8.0 17.7 0.00 0.00 0.00 24 1014.4
20260503173004 20 335 9.7 27.4 0.00 0.00 0.00 25 1014.5
20260503171502 20 308 4.8 20.9 0.00 0.00 0.00 24 1014.5
20260503081557 2 335 0.0 1.6 0.00 0.00 0.00 78 1017.4